This is the latest recevied weather packets stored in our database for station/object SR6NWB-11. If no packets are shown the sender has not sent any weather packets the latest 10 day(s).
| Time | Temp. | Humidity | Pressure | Rain* | Wind** | Luminosity | Snow |
|---|---|---|---|---|---|---|---|
| 1777532536 | 5° C | 36% | 1032.1 hPa | 0 mm | - | - | - |
| 1777532036 | 5° C | 36% | 1032.3 hPa | 0 mm | - | - | - |
| 1777531443 | 4.44° C | 37% | 1032.4 hPa | 0 mm | - | - | - |
| 1777530956 | 3.89° C | 37% | 1032.4 hPa | 0 mm | - | - | - |
| 1777530401 | 3.89° C | 37% | 1032.3 hPa | 0 mm | - | - | - |
| 1777529826 | 3.33° C | 37% | 1032.3 hPa | 0 mm | - | - | - |
| 1777529296 | 3.33° C | 38% | 1032.3 hPa | 0 mm | - | - | - |
| 1777528751 | 2.78° C | 38% | 1032.3 hPa | 0 mm | - | - | - |
| 1777528266 | 2.78° C | 38% | 1032.1 hPa | 0 mm | - | - | - |
| 1777527206 | 2.22° C | 39% | 1032.1 hPa | 0 mm | - | - | - |
| 1777526616 | 1.67° C | 39% | 1032.1 hPa | 0 mm | - | - | - |
| 1777526056 | 1.67° C | 39% | 1032 hPa | 0 mm | - | - | - |
| 1777525536 | 1.67° C | 39% | 1032 hPa | 0 mm | - | - | - |
| 1777524991 | 1.67° C | 39% | 1032 hPa | 0 mm | - | - | - |
| 1777524501 | 1.11° C | 39% | 1031.9 hPa | 0 mm | - | - | - |
| 1777523904 | 1.11° C | 39% | 1031.8 hPa | 0 mm | - | - | - |
| 1777523336 | 1.11° C | 39% | 1031.7 hPa | 0 mm | - | - | - |
| 1777522796 | 0.56° C | 39% | 1031.7 hPa | 0 mm | - | - | - |
| 1777522221 | 0.56° C | 39% | 1031.7 hPa | 0 mm | - | - | - |
| 1777521718 | 0.56° C | 39% | 1031.8 hPa | 0 mm | - | - | - |
| 1777521141 | 0.56° C | 39% | 1031.8 hPa | 0 mm | - | - | - |
| 1777520541 | 0.56° C | 39% | 1031.7 hPa | 0 mm | - | - | - |
| 1777519971 | 0.56° C | 38% | 1031.7 hPa | 0 mm | - | - | - |
| 1777519371 | 0.56° C | 38% | 1031.6 hPa | 0 mm | - | - | - |
| 1777518826 | 1.11° C | 38% | 1031.7 hPa | 0 mm | - | - | - |
* Rain latest hour (hover to see other rain measurements)
** Current wind speed in m/s (hover to see current wind gust speed)